| time (UTC) | temp C | wind direction | speed KPH | gust KPH | rain 1hr cm | rain 24hr cm | rain mn cm | humidity % | barometer mb |
| 20260505230354 | 1 | 342 | 3.2 | 9.7 | 0.00 | 0.61 | 0.41 | 97 | 975.3 |
| 20260505225852 | 1 | 350 | 3.2 | 11.3 | 0.00 | 0.61 | 0.41 | 97 | 975.2 |
| 20260505225352 | 1 | 334 | 3.2 | 11.3 | 0.00 | 0.61 | 0.41 | 97 | 975.0 |
| 20260505224851 | 1 | 30 | 4.8 | 11.3 | 0.00 | 0.61 | 0.41 | 97 | 975.0 |
| 20260505224352 | 1 | 325 | 4.8 | 11.3 | 0.00 | 0.61 | 0.41 | 96 | 974.9 |
| 20260505223856 | 1 | 314 | 3.2 | 8.0 | 0.00 | 0.61 | 0.41 | 97 | 974.7 |
| 20260505223852 | 1 | 326 | 3.2 | 11.3 | 0.00 | 0.61 | 0.41 | 96 | 974.8 |
| 20260505222852 | 1 | 17 | 3.2 | 8.0 | 0.00 | 0.61 | 0.41 | 97 | 974.7 |
| 20260505222352 | 1 | 8 | 3.2 | 11.3 | 0.03 | 0.61 | 0.41 | 96 | 974.7 |
| 20260505221850 | 1 | 323 | 3.2 | 11.3 | 0.03 | 0.61 | 0.41 | 97 | 974.6 |
| 20260505221350 | 1 | 320 | 3.2 | 9.7 | 0.03 | 0.61 | 0.41 | 97 | 974.6 |
| 20260505220850 | 1 | 19 | 4.8 | 11.3 | 0.03 | 0.61 | 0.41 | 97 | 974.6 |
| 20260505220350 | 1 | 25 | 4.8 | 11.3 | 0.03 | 0.61 | 0.41 | 97 | 974.7 |
| 20260505215850 | 1 | 314 | 3.2 | 11.3 | 0.03 | 0.61 | 0.41 | 96 | 974.7 |
| 20260505215350 | 1 | 326 | 3.2 | 14.5 | 0.03 | 0.61 | 0.41 | 97 | 974.8 |
| 20260505214850 | 1 | 6 | 4.8 | 14.5 | 0.03 | 0.61 | 0.41 | 96 | 974.8 |
| 20260505214350 | 1 | 307 | 3.2 | 12.9 | 0.03 | 0.61 | 0.41 | 96 | 974.8 |
| 20260505213854 | 1 | 340 | 4.8 | 12.9 | 0.03 | 0.61 | 0.41 | 97 | 974.9 |
| 20260505213849 | 1 | 324 | 3.2 | 12.9 | 0.03 | 0.61 | 0.41 | 97 | 974.9 |
| 20260505212847 | 1 | 324 | 4.8 | 12.9 | 0.03 | 0.61 | 0.41 | 96 | 975.0 |
| 20260505212345 | 2 | 321 | 4.8 | 12.9 | 0.00 | 0.58 | 0.38 | 97 | 975.0 |
| 20260505211845 | 2 | 26 | 4.8 | 12.9 | 0.00 | 0.58 | 0.38 | 96 | 975.2 |
| 20260505211346 | 2 | 18 | 4.8 | 12.9 | 0.00 | 0.58 | 0.38 | 96 | 975.3 |
| 20260505211342 | 2 | 309 | 4.8 | 12.9 | 0.00 | 0.58 | 0.38 | 97 | 975.4 |
| 20260505210339 | 2 | 341 | 4.8 | 12.9 | 0.00 | 0.58 | 0.38 | 97 | 975.4 |
| 20260505205839 | 2 | 358 | 4.8 | 12.9 | 0.00 | 0.58 | 0.38 | 97 | 975.4 |
| 20260505205337 | 2 | 344 | 4.8 | 12.9 | 0.00 | 0.58 | 0.38 | 97 | 975.5 |
| 20260505204835 | 2 | 339 | 4.8 | 11.3 | 0.00 | 0.58 | 0.38 | 97 | 975.5 |
| 20260505204334 | 2 | 340 | 3.2 | 11.3 | 0.00 | 0.58 | 0.38 | 97 | 975.5 |
| 20260505203832 | 2 | 345 | 1.6 | 9.7 | 0.00 | 0.58 | 0.38 | 97 | 975.5 |
| 20260505203329 | 2 | 11 | 3.2 | 11.3 | 0.00 | 0.58 | 0.38 | 97 | 975.7 |
| 20260505202829 | 2 | 15 | 4.8 | 14.5 | 0.00 | 0.58 | 0.38 | 97 | 975.9 |
| 20260505202329 | 2 | 356 | 3.2 | 14.5 | 0.00 | 0.58 | 0.38 | 97 | 976.0 |
| 20260505201828 | 2 | 342 | 1.6 | 6.4 | 0.00 | 0.58 | 0.38 | 97 | 976.0 |
| 20260505201334 | 2 | 11 | 3.2 | 8.0 | 0.03 | 0.58 | 0.38 | 97 | 976.0 |
| 20260505200833 | 2 | 335 | 1.6 | 8.0 | 0.03 | 0.58 | 0.38 | 97 | 976.1 |
| 20260505200829 | 2 | 340 | 3.2 | 8.0 | 0.03 | 0.58 | 0.38 | 97 | 976.1 |
| 20260505195828 | 2 | 13 | 1.6 | 8.0 | 0.03 | 0.58 | 0.38 | 97 | 976.1 |
| 20260505195327 | 2 | 332 | 1.6 | 8.0 | 0.03 | 0.58 | 0.38 | 97 | 976.0 |
| 20260505194827 | 2 | 326 | 1.6 | 6.4 | 0.03 | 0.58 | 0.38 | 97 | 976.1 |
| 20260505194327 | 2 | 316 | 1.6 | 4.8 | 0.03 | 0.58 | 0.38 | 97 | 976.2 |
| 20260505193831 | 1 | 2 | 1.6 | 9.7 | 0.05 | 0.58 | 0.38 | 96 | 976.2 |
| 20260505193827 | 2 | 354 | 1.6 | 9.7 | 0.05 | 0.58 | 0.38 | 97 | 976.1 |
| 20260505192823 | 2 | 321 | 0.0 | 4.8 | 0.05 | 0.58 | 0.38 | 97 | 976.3 |
| 20260505192323 | 2 | 323 | 0.0 | 3.2 | 0.05 | 0.58 | 0.38 | 97 | 976.3 |
| 20260505191827 | 2 | 129 | 0.0 | 3.2 | 0.03 | 0.56 | 0.36 | 97 | 976.5 |
| 20260505191822 | 2 | 261 | 0.0 | 1.6 | 0.05 | 0.58 | 0.38 | 97 | 976.5 |
| 20260505190823 | 2 | 169 | 0.0 | 3.2 | 0.03 | 0.56 | 0.36 | 97 | 976.5 |
| 20260505190325 | 1 | 343 | 0.0 | 4.8 | 0.03 | 0.56 | 0.36 | 97 | 976.6 |
| 20260505185827 | 1 | 333 | 0.0 | 3.2 | 0.03 | 0.56 | 0.36 | 96 | 976.7 |
| 20260505185823 | 1 | 314 | 0.0 | 4.8 | 0.03 | 0.56 | 0.36 | 96 | 976.6 |
| 20260505184823 | 1 | 303 | 0.0 | 1.6 | 0.03 | 0.56 | 0.36 | 97 | 976.7 |
| 20260505184327 | 2 | 336 | 0.0 | 4.8 | 0.00 | 0.53 | 0.33 | 96 | 976.7 |
| 20260505184322 | 1 | 336 | 0.0 | 4.8 | 0.03 | 0.56 | 0.36 | 96 | 976.7 |
| 20260505183321 | 2 | 255 | 0.0 | 4.8 | 0.00 | 0.53 | 0.33 | 97 | 976.8 |
| 20260505182821 | 2 | 5 | 0.0 | 4.8 | 0.00 | 0.53 | 0.33 | 96 | 976.8 |
| 20260505182321 | 2 | 345 | 0.0 | 1.6 | 0.00 | 0.53 | 0.33 | 97 | 976.8 |
| 20260505181821 | 2 | 336 | 0.0 | 1.6 | 0.00 | 0.53 | 0.33 | 97 | 976.8 |
| 20260505181325 | 2 | 342 | 0.0 | 1.6 | 0.03 | 0.53 | 0.33 | 97 | 977.0 |
| 20260505181321 | 2 | 346 | 0.0 | 0.0 | 0.00 | 0.53 | 0.33 | 97 | 977.0 |
| 20260505180321 | 2 | 326 | 0.0 | 1.6 | 0.03 | 0.53 | 0.33 | 97 | 977.3 |
| 20260505175821 | 2 | 285 | 0.0 | 1.6 | 0.03 | 0.53 | 0.33 | 97 | 977.2 |
| 20260505175320 | 1 | 284 | 0.0 | 1.6 | 0.03 | 0.53 | 0.33 | 97 | 977.2 |
| 20260505174823 | 1 | 0 | 0.0 | 1.6 | 0.03 | 0.53 | 0.33 | 97 | 977.3 |
| 20260505174819 | 1 | 297 | 0.0 | 1.6 | 0.03 | 0.53 | 0.33 | 97 | 977.2 |
| 20260505173819 | 1 | 321 | 0.0 | 1.6 | 0.03 | 0.53 | 0.33 | 97 | 977.3 |
| 20260505173320 | 1 | 311 | 0.0 | 1.6 | 0.03 | 0.53 | 0.33 | 97 | 977.3 |
| 20260505172819 | 1 | 322 | 0.0 | 1.6 | 0.03 | 0.53 | 0.33 | 97 | 977.3 |
| 20260505172319 | 1 | 309 | 0.0 | 1.6 | 0.03 | 0.53 | 0.33 | 97 | 977.4 |
| 20260505171819 | 1 | 329 | 0.0 | 4.8 | 0.03 | 0.53 | 0.33 | 97 | 977.4 |
| 20260505171319 | 1 | 287 | 0.0 | 4.8 | 0.03 | 0.53 | 0.33 | 97 | 977.5 |
| 20260505170819 | 1 | 3 | 0.0 | 3.2 | 0.00 | 0.51 | 0.30 | 97 | 977.5 |
| 20260505170318 | 1 | 275 | 0.0 | 3.2 | 0.00 | 0.51 | 0.30 | 97 | 977.6 |
| 20260505165817 | 1 | 323 | 0.0 | 3.2 | 0.00 | 0.51 | 0.30 | 97 | 977.6 |
| 20260505165318 | 1 | 4 | 0.0 | 1.6 | 0.00 | 0.51 | 0.30 | 97 | 977.6 |
| 20260505164821 | 1 | 355 | 0.0 | 3.2 | 0.00 | 0.51 | 0.30 | 97 | 977.8 |
| 20260505164815 | 1 | 324 | 0.0 | 1.6 | 0.00 | 0.51 | 0.30 | 97 | 977.6 |
| 20260505164315 | 1 | 339 | 0.0 | 3.2 | 0.00 | 0.51 | 0.30 | 97 | 977.8 |
| 20260505163319 | 1 | 17 | 0.0 | 1.6 | 0.00 | 0.51 | 0.30 | 97 | 977.9 |
| 20260505163314 | 1 | 6 | 0.0 | 1.6 | 0.00 | 0.51 | 0.30 | 97 | 977.9 |
| 20260505162313 | 1 | 151 | 0.0 | 1.6 | 0.00 | 0.51 | 0.30 | 97 | 977.8 |
| 20260505161811 | 1 | 290 | 0.0 | 1.6 | 0.00 | 0.51 | 0.30 | 97 | 977.8 |
| 20260505161310 | 1 | 319 | 0.0 | 1.6 | 0.00 | 0.51 | 0.30 | 97 | 977.8 |
| 20260505160809 | 1 | 316 | 0.0 | 1.6 | 0.00 | 0.51 | 0.30 | 97 | 977.9 |
| 20260505160313 | 1 | 1 | 1.6 | 6.4 | 0.00 | 0.51 | 0.30 | 97 | 977.9 |
| 20260505160309 | 1 | 82 | 1.6 | 6.4 | 0.00 | 0.51 | 0.30 | 97 | 977.9 |
| 20260505152808 | 1 | 345 | 0.0 | 4.8 | 0.03 | 0.51 | 0.30 | 97 | 977.9 |
| 20260505152307 | 1 | 4 | 0.0 | 3.2 | 0.03 | 0.51 | 0.30 | 97 | 978.0 |
| 20260505151805 | 1 | 341 | 0.0 | 3.2 | 0.03 | 0.51 | 0.30 | 97 | 978.0 |
| 20260505151305 | 1 | 0 | 1.6 | 4.8 | 0.03 | 0.51 | 0.30 | 97 | 978.0 |
| 20260505150802 | 1 | 335 | 1.6 | 6.4 | 0.03 | 0.51 | 0.30 | 97 | 978.0 |
| 20260505150301 | 1 | 8 | 1.6 | 6.4 | 0.05 | 0.51 | 0.30 | 97 | 977.9 |
| 20260505140256 | 1 | 335 | 4.8 | 11.3 | 0.03 | 0.46 | 0.25 | 96 | 978.2 |
| 20260505130254 | 1 | 239 | 3.2 | 16.1 | 0.03 | 0.43 | 0.23 | 96 | 977.0 |
| 20260505130250 | 1 | 343 | 3.2 | 12.9 | 0.03 | 0.43 | 0.23 | 96 | 977.2 |
| 20260505124748 | 1 | 306 | 3.2 | 12.9 | 0.03 | 0.43 | 0.23 | 96 | 976.9 |
| 20260505124247 | 1 | 320 | 1.6 | 11.3 | 0.05 | 0.43 | 0.23 | 96 | 976.8 |
| 20260505123746 | 1 | 295 | 1.6 | 9.7 | 0.05 | 0.43 | 0.23 | 96 | 976.8 |
| 20260505123246 | 1 | 315 | 3.2 | 11.3 | 0.08 | 0.43 | 0.23 | 96 | 976.7 |
| 20260505122746 | 1 | 325 | 4.8 | 17.7 | 0.08 | 0.43 | 0.23 | 96 | 976.6 |
| 20260505122246 | 1 | 338 | 4.8 | 17.7 | 0.10 | 0.43 | 0.23 | 96 | 976.6 |
| 20260505121744 | 1 | 326 | 4.8 | 12.9 | 0.10 | 0.43 | 0.23 | 96 | 976.6 |
| 20260505121242 | 2 | 315 | 3.2 | 12.9 | 0.10 | 0.43 | 0.23 | 96 | 976.7 |
| 20260505120743 | 2 | 9 | 4.8 | 19.3 | 0.10 | 0.43 | 0.23 | 96 | 976.6 |
| 20260505120242 | 2 | 316 | 8.0 | 19.3 | 0.08 | 0.41 | 0.20 | 96 | 976.5 |
| 20260505115740 | 2 | 340 | 8.0 | 19.3 | 0.08 | 0.41 | 0.20 | 96 | 976.3 |
| 20260505115240 | 2 | 307 | 6.4 | 17.7 | 0.08 | 0.41 | 0.20 | 96 | 976.3 |
| 20260505114740 | 2 | 321 | 4.8 | 14.5 | 0.08 | 0.41 | 0.20 | 96 | 976.3 |
| 20260505114240 | 3 | 324 | 6.4 | 17.7 | 0.05 | 0.38 | 0.18 | 96 | 976.3 |
| 20260505113740 | 3 | 307 | 6.4 | 17.7 | 0.05 | 0.38 | 0.18 | 96 | 976.3 |
| 20260505113240 | 3 | 20 | 4.8 | 16.1 | 0.03 | 0.36 | 0.15 | 96 | 976.2 |
| 20260505112740 | 3 | 328 | 4.8 | 11.3 | 0.03 | 0.36 | 0.15 | 96 | 976.3 |
| 20260505112240 | 3 | 299 | 4.8 | 12.9 | 0.00 | 0.33 | 0.13 | 96 | 976.2 |
| 20260505111740 | 3 | 10 | 4.8 | 20.9 | 0.00 | 0.33 | 0.13 | 96 | 976.2 |
| 20260505110740 | 3 | 345 | 4.8 | 12.9 | 0.00 | 0.33 | 0.13 | 95 | 976.1 |
| 20260505110240 | 4 | 358 | 6.4 | 17.7 | 0.00 | 0.33 | 0.13 | 95 | 976.0 |
| 20260505101738 | 6 | 321 | 0.0 | 4.8 | 0.00 | 0.33 | 0.13 | 96 | 975.2 |
| 20260505101237 | 6 | 240 | 0.0 | 4.8 | 0.00 | 0.33 | 0.13 | 96 | 975.2 |
| 20260505100737 | 6 | 211 | 0.0 | 3.2 | 0.00 | 0.33 | 0.13 | 96 | 975.0 |
| 20260505100236 | 6 | 224 | 0.0 | 3.2 | 0.00 | 0.33 | 0.13 | 96 | 975.2 |
| 20260505095736 | 5 | 261 | 0.0 | 1.6 | 0.00 | 0.33 | 0.13 | 96 | 975.0 |
| 20260505095237 | 5 | 214 | 1.6 | 8.0 | 0.00 | 0.33 | 0.13 | 96 | 975.2 |
| 20260505094736 | 5 | 212 | 1.6 | 8.0 | 0.00 | 0.33 | 0.13 | 96 | 975.3 |
| 20260505094236 | 5 | 221 | 1.6 | 8.0 | 0.00 | 0.33 | 0.13 | 96 | 975.2 |
| 20260505093736 | 5 | 337 | 1.6 | 6.4 | 0.00 | 0.33 | 0.13 | 96 | 974.4 |
| 20260505093236 | 5 | 333 | 0.0 | 6.4 | 0.00 | 0.33 | 0.13 | 96 | 974.2 |
| 20260505092736 | 5 | 332 | 0.0 | 1.6 | 0.00 | 0.33 | 0.13 | 96 | 974.7 |
| 20260505092236 | 5 | 340 | 0.0 | 1.6 | 0.00 | 0.33 | 0.13 | 96 | 975.0 |
| 20260505091734 | 5 | 340 | 0.0 | 0.0 | 0.00 | 0.33 | 0.13 | 96 | 975.2 |
| 20260505091234 | 5 | 342 | 0.0 | 1.6 | 0.00 | 0.33 | 0.13 | 96 | 975.0 |
| 20260505090733 | 5 | 343 | 0.0 | 1.6 | 0.00 | 0.33 | 0.13 | 96 | 975.2 |
| 20260505090234 | 5 | 172 | 0.0 | 0.0 | 0.00 | 0.33 | 0.13 | 96 | 975.0 |
| 20260505085734 | 5 | 172 | 0.0 | 0.0 | 0.00 | 0.33 | 0.13 | 96 | 975.0 |
| 20260505085235 | 5 | 172 | 0.0 | 0.0 | 0.00 | 0.33 | 0.13 | 96 | 974.9 |
| 20260505084735 | 5 | 172 | 0.0 | 0.0 | 0.00 | 0.33 | 0.13 | 96 | 974.8 |
| 20260505084234 | 5 | 206 | 0.0 | 0.0 | 0.00 | 0.33 | 0.13 | 96 | 974.9 |
| 20260505083734 | 6 | 203 | 0.0 | 0.0 | 0.03 | 0.33 | 0.13 | 96 | 975.0 |
| 20260505083234 | 6 | 203 | 0.0 | 0.0 | 0.03 | 0.33 | 0.13 | 96 | 975.0 |
| 20260505082732 | 6 | 204 | 0.0 | 0.0 | 0.03 | 0.33 | 0.13 | 96 | 975.0 |
| 20260505082232 | 6 | 204 | 0.0 | 0.0 | 0.03 | 0.33 | 0.13 | 96 | 975.3 |
| 20260505081732 | 6 | 204 | 0.0 | 4.8 | 0.03 | 0.33 | 0.13 | 96 | 975.4 |
| 20260505081233 | 6 | 204 | 1.6 | 6.4 | 0.03 | 0.33 | 0.13 | 96 | 975.5 |
| 20260505080732 | 6 | 212 | 3.2 | 9.7 | 0.03 | 0.33 | 0.13 | 96 | 975.4 |
| 20260505080229 | 6 | 200 | 4.8 | 9.7 | 0.05 | 0.33 | 0.13 | 96 | 975.5 |
| 20260505075730 | 6 | 181 | 4.8 | 11.3 | 0.08 | 0.33 | 0.13 | 96 | 975.5 |
| 20260505075234 | 5 | 161 | 4.8 | 12.9 | 0.10 | 0.33 | 0.13 | 96 | 975.5 |
| 20260505075230 | 5 | 162 | 6.4 | 12.9 | 0.08 | 0.33 | 0.13 | 96 | 975.5 |
| 20260505074229 | 5 | 176 | 3.2 | 11.3 | 0.10 | 0.33 | 0.13 | 96 | 975.6 |
| 20260505073730 | 6 | 172 | 1.6 | 8.0 | 0.08 | 0.30 | 0.10 | 96 | 975.9 |
| 20260505073230 | 6 | 110 | 3.2 | 6.4 | 0.10 | 0.30 | 0.10 | 96 | 976.1 |
| 20260505072729 | 6 | 195 | 3.2 | 8.0 | 0.10 | 0.30 | 0.10 | 96 | 976.2 |
| 20260505072229 | 6 | 158 | 3.2 | 8.0 | 0.10 | 0.30 | 0.10 | 96 | 976.2 |
| 20260505071730 | 6 | 150 | 1.6 | 8.0 | 0.10 | 0.30 | 0.10 | 96 | 976.3 |
| 20260505071229 | 6 | 174 | 0.0 | 3.2 | 0.10 | 0.30 | 0.10 | 96 | 976.2 |
| 20260505070735 | 6 | 186 | 0.0 | 3.2 | 0.05 | 0.25 | 0.05 | 96 | 976.8 |
| 20260505070730 | 6 | 136 | 1.6 | 6.4 | 0.10 | 0.30 | 0.10 | 96 | 976.3 |
| 20260505070230 | 6 | 196 | 1.6 | 6.4 | 0.08 | 0.28 | 0.08 | 96 | 976.6 |
| 20260505065230 | 6 | 181 | 0.0 | 3.2 | 0.05 | 0.25 | 0.05 | 96 | 976.8 |
| 20260505064729 | 6 | 200 | 0.0 | 1.6 | 0.03 | 0.23 | 0.05 | 96 | 976.8 |
| 20260505064228 | 6 | 168 | 0.0 | 1.6 | 0.03 | 0.23 | 0.03 | 96 | 976.8 |
| 20260505063730 | 6 | 153 | 0.0 | 1.6 | 0.00 | 0.20 | 0.00 | 96 | 976.8 |
| 20260505063726 | 6 | 158 | 0.0 | 1.6 | 0.03 | 0.23 | 0.03 | 96 | 976.8 |
| 20260505062729 | 6 | 160 | 0.0 | 0.0 | 0.03 | 0.20 | 0.00 | 96 | 976.8 |
| 20260505062725 | 6 | 157 | 0.0 | 1.6 | 0.00 | 0.20 | 0.00 | 96 | 976.7 |
| 20260505061725 | 6 | 160 | 0.0 | 0.0 | 0.03 | 0.20 | 0.00 | 96 | 976.8 |
| 20260505061225 | 6 | 180 | 0.0 | 0.0 | 0.05 | 0.20 | 0.00 | 95 | 976.8 |
| 20260505060725 | 6 | 183 | 0.0 | 0.0 | 0.05 | 0.20 | 0.00 | 96 | 976.8 |
| 20260505060225 | 6 | 183 | 0.0 | 3.2 | 0.05 | 0.20 | 0.00 | 95 | 976.6 |
| 20260505055725 | 6 | 195 | 0.0 | 3.2 | 0.08 | 0.20 | 0.20 | 95 | 976.7 |
| 20260505055224 | 6 | 150 | 0.0 | 1.6 | 0.08 | 0.20 | 0.20 | 95 | 976.7 |
| 20260505054729 | 6 | 342 | 0.0 | 0.0 | 0.10 | 0.20 | 0.20 | 95 | 976.7 |
| 20260505054724 | 6 | 137 | 0.0 | 1.6 | 0.10 | 0.20 | 0.20 | 95 | 976.8 |
| 20260505053724 | 6 | 342 | 0.0 | 0.0 | 0.10 | 0.20 | 0.20 | 95 | 976.5 |
| 20260505053224 | 6 | 342 | 0.0 | 3.2 | 0.10 | 0.20 | 0.20 | 95 | 976.6 |
| 20260505052725 | 6 | 342 | 1.6 | 8.0 | 0.10 | 0.20 | 0.20 | 95 | 976.8 |
| 20260505052224 | 6 | 11 | 1.6 | 8.0 | 0.08 | 0.18 | 0.18 | 95 | 976.9 |
| 20260505051725 | 6 | 338 | 1.6 | 8.0 | 0.08 | 0.18 | 0.18 | 95 | 976.9 |
| 20260505051224 | 6 | 325 | 1.6 | 4.8 | 0.05 | 0.15 | 0.15 | 95 | 977.0 |
| 20260505050728 | 6 | 319 | 3.2 | 8.0 | 0.08 | 0.15 | 0.15 | 94 | 977.0 |
| 20260505050724 | 6 | 358 | 1.6 | 6.4 | 0.05 | 0.15 | 0.15 | 95 | 977.3 |
| 20260505041724 | 7 | 10 | 0.0 | 3.2 | 0.10 | 0.10 | 0.10 | 94 | 976.9 |
| 20260505041222 | 7 | 326 | 0.0 | 3.2 | 0.10 | 0.10 | 0.10 | 93 | 976.7 |
| 20260505040722 | 7 | 338 | 0.0 | 1.6 | 0.10 | 0.10 | 0.10 | 93 | 976.8 |
| 20260505040222 | 7 | 186 | 0.0 | 3.2 | 0.08 | 0.08 | 0.08 | 93 | 976.6 |
| 20260505035723 | 7 | 186 | 1.6 | 6.4 | 0.08 | 0.08 | 0.08 | 93 | 976.5 |
| 20260505035226 | 7 | 229 | 3.2 | 12.9 | 0.05 | 0.05 | 0.05 | 92 | 976.6 |
| 20260505035222 | 7 | 217 | 3.2 | 11.3 | 0.05 | 0.05 | 0.05 | 92 | 976.5 |
| 20260505034222 | 7 | 227 | 3.2 | 12.9 | 0.03 | 0.03 | 0.03 | 91 | 976.6 |
| 20260505033722 | 7 | 210 | 3.2 | 8.0 | 0.03 | 0.03 | 0.03 | 90 | 976.7 |
| 20260505033222 | 7 | 217 | 1.6 | 6.4 | 0.03 | 0.03 | 0.03 | 89 | 976.6 |
| 20260505032720 | 8 | 176 | 0.0 | 4.8 | 0.03 | 0.03 | 0.03 | 83 | 976.5 |
| 20260505032220 | 8 | 226 | 0.0 | 3.2 | 0.03 | 0.03 | 0.03 | 78 | 976.3 |
| 20260505031720 | 8 | 266 | 1.6 | 8.0 | 0.00 | 0.00 | 0.00 | 77 | 976.5 |
| 20260505031219 | 8 | 221 | 1.6 | 8.0 | 0.00 | 0.00 | 0.00 | 75 | 976.3 |
| 20260505030718 | 8 | 219 | 0.0 | 6.4 | 0.00 | 0.00 | 0.00 | 75 | 976.3 |
| 20260505030218 | 8 | 233 | 0.0 | 4.8 | 0.00 | 0.00 | 0.00 | 75 | 976.2 |
| 20260505025720 | 9 | 203 | 0.0 | 3.2 | 0.00 | 0.00 | 0.00 | 74 | 976.2 |
| 20260505025716 | 9 | 309 | 0.0 | 3.2 | 0.00 | 0.00 | 0.00 | 71 | 976.2 |
| 20260505024716 | 9 | 239 | 0.0 | 1.6 | 0.00 | 0.00 | 0.00 | 71 | 976.0 |
| 20260505024215 | 9 | 317 | 0.0 | 1.6 | 0.00 | 0.00 | 0.00 | 72 | 976.0 |
| 20260505023716 | 9 | 218 | 0.0 | 0.0 | 0.00 | 0.00 | 0.00 | 72 | 975.9 |
| 20260505023216 | 9 | 218 | 0.0 | 0.0 | 0.00 | 0.00 | 0.00 | 71 | 975.7 |
| 20260505022716 | 9 | 218 | 0.0 | 0.0 | 0.00 | 0.00 | 0.00 | 70 | 975.7 |
| 20260505022216 | 9 | 218 | 0.0 | 3.2 | 0.00 | 0.00 | 0.00 | 70 | 975.5 |
| 20260505021714 | 9 | 217 | 0.0 | 3.2 | 0.00 | 0.00 | 0.00 | 69 | 975.6 |
| 20260505021214 | 9 | 217 | 0.0 | 0.0 | 0.00 | 0.00 | 0.00 | 69 | 975.5 |
| 20260505020714 | 10 | 281 | 0.0 | 1.6 | 0.00 | 0.00 | 0.00 | 68 | 975.5 |
| 20260505020214 | 10 | 259 | 0.0 | 4.8 | 0.00 | 0.00 | 0.00 | 67 | 975.7 |
| 20260505015713 | 10 | 317 | 0.0 | 4.8 | 0.00 | 0.00 | 0.00 | 67 | 975.7 |
| 20260505015215 | 10 | 288 | 0.0 | 3.2 | 0.00 | 0.00 | 0.00 | 67 | 975.6 |
| 20260505014719 | 10 | 161 | 0.0 | 1.6 | 0.00 | 0.00 | 0.00 | 66 | 975.3 |
| 20260505014715 | 10 | 193 | 0.0 | 0.0 | 0.00 | 0.00 | 0.00 | 66 | 975.6 |
| 20260505013714 | 10 | 231 | 0.0 | 1.6 | 0.00 | 0.00 | 0.00 | 61 | 975.2 |
| 20260505013214 | 10 | 304 | 0.0 | 1.6 | 0.00 | 0.00 | 0.00 | 58 | 975.4 |
| 20260505012712 | 10 | 334 | 1.6 | 16.1 | 0.00 | 0.00 | 0.00 | 62 | 975.5 |
| 20260505012212 | 11 | 320 | 3.2 | 16.1 | 0.00 | 0.00 | 0.00 | 62 | 975.5 |
| 20260505011712 | 11 | 349 | 3.2 | 14.5 | 0.00 | 0.00 | 0.00 | 56 | 975.6 |
| 20260505011212 | 11 | 312 | 3.2 | 17.7 | 0.00 | 0.00 | 0.00 | 53 | 975.6 |
| 20260505010711 | 12 | 326 | 3.2 | 17.7 | 0.00 | 0.00 | 0.00 | 49 | 975.3 |
| 20260505010212 | 12 | 304 | 4.8 | 19.3 | 0.00 | 0.00 | 0.00 | 46 | 975.3 |
| 20260505005712 | 12 | 320 | 6.4 | 19.3 | 0.00 | 0.00 | 0.00 | 46 | 975.2 |
| 20260505005212 | 12 | 322 | 4.8 | 16.1 | 0.00 | 0.00 | 0.00 | 45 | 974.9 |
| 20260505004712 | 12 | 335 | 1.6 | 8.0 | 0.00 | 0.00 | 0.00 | 45 | 974.9 |
| 20260505004212 | 12 | 328 | 0.0 | 3.2 | 0.00 | 0.00 | 0.00 | 47 | 974.9 |
| 20260505003710 | 12 | 262 | 0.0 | 3.2 | 0.00 | 0.00 | 0.00 | 47 | 974.9 |
| 20260505003209 | 12 | 199 | 0.0 | 3.2 | 0.00 | 0.00 | 0.00 | 47 | 974.8 |
| 20260505002709 | 12 | 135 | 0.0 | 1.6 | 0.00 | 0.00 | 0.00 | 46 | 974.9 |
| 20260505002210 | 12 | 155 | 0.0 | 1.6 | 0.00 | 0.00 | 0.00 | 48 | 975.0 |
| 20260505001709 | 12 | 129 | 0.0 | 1.6 | 0.00 | 0.00 | 0.00 | 47 | 974.9 |
| 20260505001210 | 12 | 351 | 0.0 | 1.6 | 0.00 | 0.00 | 0.00 | 48 | 975.0 |
| 20260505000710 | 12 | 181 | 0.0 | 1.6 | 0.00 | 0.00 | 0.00 | 47 | 974.9 |
| 20260505000211 | 12 | 252 | 0.0 | 1.6 | 0.00 | 0.00 | 0.00 | 45 | 974.8 |
| 20260504235710 | 13 | 185 | 1.6 | 1.6 | 0.00 | 0.00 | 0.00 | 46 | 974.9 |
| 20260504235210 | 13 | 111 | 1.6 | 0.0 | 0.00 | 0.00 | 0.00 | 45 | 974.8 |